Location: Kitt Peak
(31.9633°N, 111.6000°W)
Time: 11:43:36
(UTC-07:00)

Amateur Radio Satellites - All Passes

Search period start: 23 November 2014 11:13
Search period end: 24 November 2014 11:13
Location: Kitt Peak, 31.9633°N, 111.6000°W

Satellite Date Start Highest point End Downlink Frequencies (MHz)
Time Altitude Azimuth
CUBEBUG 2 23 Nov 11:17:14 11:20:39 24° 288° (WNW) 11:24:08 437.445
GONETS M04 23 Nov 11:20:54 11:21:48 10° 296° (WNW) 11:22:42
Oscar 11 23 Nov 11:22:02 11:24:03 13° 292° (WNW) 11:26:05 145.826/435.025
UWE-3 23 Nov 11:23:45 11:27:08 24° 288° (WNW) 11:30:34 435.000/436.395/437.385
CINEMA 3 23 Nov 11:24:35 11:26:28 13° 291° (WNW) 11:28:22 145.822/145.860
POLYITAN 1 23 Nov 11:28:18 11:31:46 24° 263° (W) 11:35:14 437.675
QB50P2 23 Nov 11:31:42 11:35:01 22° 264° (W) 11:38:20 145.880/145.840
TIGRISAT 23 Nov 11:34:36 11:37:00 15° 265° (W) 11:39:23 435.000
DUCHIFAT 1 23 Nov 11:40:10 11:43:05 18° 265° (W) 11:46:00 145.980
ESTCUBE 1 23 Nov 11:43:42 11:48:15 85° 283° (WNW) 11:52:46 437.505/2401.250
VELOX 1 23 Nov 11:56:42 11:59:59 21° 290° (WNW) 12:03:14 145.980
NANOSAT C BR1 23 Nov 12:01:48 12:02:10 10° 267° (W) 12:02:31 145.865
HUMSAT D 23 Nov 12:12:06 12:13:59 13° 292° (WNW) 12:15:52 437.325/437.525
50 SAT 23 Nov 12:20:52 12:22:18 12° 292° (WNW) 12:23:45 437.505
AISAT 23 Nov 12:23:11 12:24:10 11° 294° (WNW) 12:25:08 437.250
Oscar 19 23 Nov 12:29:17 12:33:31 27° 70° (ENE) 12:37:45 437.125/150
TISAT 1 23 Nov 12:43:05 12:47:17 73° 284° (WNW) 12:51:27 437.305
SPROUT 23 Nov 12:43:44 12:48:01 84° 283° (WNW) 12:52:17 437.525
CUBEBUG 1 23 Nov 12:45:25 12:48:10 17° 291° (WNW) 12:50:54 437.445
SO-50 23 Nov 12:50:14 12:53:33 18° 51° (NE) 12:56:51 436.795
BEESAT 23 Nov 12:53:54 12:56:58 17° 95° (E) 13:00:00 436.000
AUBIESAT-1 23 Nov 12:59:37 13:03:48 28° 101° (E) 13:07:52 437.475
M-CUBED/EXP-1 PRIME 23 Nov 13:02:35 13:07:01 33° 102° (ESE) 13:11:20 437.505
ITAMSAT 1 23 Nov 13:15:39 13:20:07 30° 70° (ENE) 13:24:36 435.822/435.867
Gurwin Techsat 1B 23 Nov 13:31:32 13:35:39 24° 69° (ENE) 13:39:47 435.225
YUBILEINY 23 Nov 13:41:50 13:49:55 41° 77° (ENE) 13:57:55 435.215
ITUPSAT 1 23 Nov 13:46:20 13:51:07 66° 102° (ESE) 13:55:52 437.325
CUSAT 1 23 Nov 13:47:40 13:50:37 40° 278° (W) 13:53:11 437.405
VERMONT LUNAR 23 Nov 13:58:09 14:00:27 16° 141° (SE) 14:02:47 437.305
SWISSCUBE 23 Nov 13:58:26 14:03:14 81° 284° (WNW) 14:08:00 437.505
DANDE 23 Nov 14:01:01 14:04:00 33° 278° (W) 14:06:33 436.750
KKS-1 23 Nov 14:06:21 14:09:33 19° 96° (E) 14:12:43 437.445
Oscar 19 23 Nov 14:08:25 14:12:43 27° 263° (W) 14:17:03 437.125/150
HORYU 2 23 Nov 14:15:16 14:18:49 24° 70° (ENE) 14:22:22 437.375
AO-7 23 Nov 14:28:26 14:34:34 24° 60° (ENE) 14:40:43 29.400- 29.500
SO-50 23 Nov 14:29:37 14:34:20 48° 246° (WSW) 14:39:01 436.795
BEESAT 23 Nov 14:30:27 14:34:53 38° 288° (WNW) 14:39:17 436.000
AUBIESAT-1 23 Nov 14:34:30 14:38:37 27° 294° (WNW) 14:42:39 437.475
M-CUBED/EXP-1 PRIME 23 Nov 14:37:55 14:41:47 24° 295° (WNW) 14:45:37 437.505
ITAMSAT 1 23 Nov 14:55:12 14:59:30 26° 263° (W) 15:03:50 435.822/435.867
MaSat-1 23 Nov 15:04:24 15:06:54 21° 109° (ESE) 15:09:13 437.345
STARS 23 Nov 15:07:03 15:11:26 70° 102° (ESE) 15:15:48 437.465
Gurwin Techsat 1B 23 Nov 15:10:35 15:15:22 34° 262° (W) 15:20:11 435.225
PHONESAT 2.4 23 Nov 15:12:37 15:16:12 47° 147° (SSE) 15:19:47 2401.200-2431.200
ITUPSAT 1 23 Nov 15:27:33 15:28:23 10° 295° (WNW) 15:29:13 437.325
VERMONT LUNAR 23 Nov 15:35:01 15:38:38 77° 333° (NNW) 15:42:16 437.305
JAS-2 23 Nov 15:35:11 15:40:13 20° 62° (ENE) 15:45:24 435.910
YUBILEINY 23 Nov 15:38:51 15:46:26 35° 273° (W) 15:54:00 435.215
KKS-1 23 Nov 15:42:21 15:46:09 29° 289° (WNW) 15:49:57 437.445
HORYU 2 23 Nov 15:51:51 15:55:22 23° 263° (W) 15:58:53 437.375
O/OREOS (USA 219) 23 Nov 15:53:51 15:56:36 16° 62° (ENE) 15:59:21 437.305
RS-15 23 Nov 15:55:39 16:06:11 53° 110° (ESE) 16:16:33 29.354- 29.394
AO-7 23 Nov 16:18:26 16:26:37 66° 256° (WSW) 16:34:53 29.400- 29.500
MOZHAYETS 4 23 Nov 16:27:50 16:31:00 18° 95° (E) 16:34:08
MaSat-1 23 Nov 16:40:17 16:41:26 12° 297° (WNW) 16:42:32 437.345
PHONESAT 2.4 23 Nov 16:51:37 16:55:04 36° 342° (NNW) 16:58:32 2401.200-2431.200
Cubesat XI-IV 23 Nov 17:13:03 17:17:30 27° 69° (ENE) 17:21:57 437.490
VERMONT LUNAR 23 Nov 17:14:27 17:17:29 24° 349° (N) 17:20:31 437.305
JAS-2 23 Nov 17:16:55 17:24:16 76° 258° (WSW) 17:32:09 435.910
O/OREOS (USA 219) 23 Nov 17:31:59 17:36:05 37° 256° (WSW) 17:40:12 437.305
CUTE-I 23 Nov 17:54:11 17:59:31 70° 75° (ENE) 18:04:51 437.470
CUBESAT XI-V 23 Nov 18:02:54 18:04:37 12° 92° (E) 18:06:18 437.345
MOZHAYETS 4 23 Nov 18:04:03 18:08:14 34° 287° (WNW) 18:12:25
RS-15 23 Nov 18:08:42 18:18:40 39° 309° (NW) 18:28:40 29.354- 29.394
PHONESAT 2.4 23 Nov 18:31:36 18:34:30 21° 359° (N) 18:37:25 2401.200-2431.200
PRISM 23 Nov 18:36:49 18:41:05 83° 283° (WNW) 18:45:17 437.425
Cubesat XI-IV 23 Nov 18:52:46 18:57:25 30° 262° (W) 19:02:06 437.490
VERMONT LUNAR 23 Nov 18:53:49 18:56:42 22° 7° (N) 18:59:35 437.305
STRAND 1 23 Nov 19:05:42 19:10:46 62° 101° (ESE) 19:15:46 437.568
JAS-2 23 Nov 19:10:02 19:10:18 10° 273° (W) 19:10:34 435.910
AIST 1 23 Nov 19:25:07 19:28:26 21° 89° (E) 19:31:46
GONETS M04 23 Nov 19:31:25 19:39:48 46° 79° (ENE) 19:48:05
CANX-2 23 Nov 19:33:47 19:35:12 12° 67° (ENE) 19:36:38 2200.000
HO-68 23 Nov 19:34:17 19:40:10 28° 65° (ENE) 19:46:03 435.675
CUBESAT XI-V 23 Nov 19:37:46 19:42:17 50° 285° (WNW) 19:46:44 437.345
CUTE-I 23 Nov 19:38:42 19:39:57 11° 268° (W) 19:41:13 437.470
PCSat 23 Nov 20:01:10 20:06:31 69° 112° (ESE) 20:11:55 145.827
CUTE 1.7 & AOD 2 23 Nov 20:06:27 20:09:59 27° 72° (ENE) 20:13:32 437.475
PHONESAT 2.4 23 Nov 20:10:37 20:13:59 32° 16° (NNE) 20:17:20 2401.200-2431.200
BEESAT 3 23 Nov 20:17:02 20:20:51 40° 113° (ESE) 20:24:44 437.485
GOMX 1 23 Nov 20:18:33 20:22:47 29° 73° (ENE) 20:26:48 467.674
UKube-1 23 Nov 20:23:29 20:25:17 12° 67° (ENE) 20:27:05 .
BEESAT 2 23 Nov 20:30:11 20:34:09 53° 114° (ESE) 20:38:13 435.950
VERMONT LUNAR 23 Nov 20:32:08 20:35:41 51° 23° (NNE) 20:39:13 437.305
BRITE-PL 23 Nov 20:33:19 20:38:30 62° 76° (ENE) 20:43:17 437.365/2234.400
RS-15 23 Nov 20:34:01 20:35:31 10° 340° (NNW) 20:37:02 29.354- 29.394
Oscar 11 23 Nov 20:35:24 20:38:23 19° 70° (ENE) 20:41:22 145.826/435.025
CUBEBUG 2 23 Nov 20:37:41 20:38:21 10° 67° (ENE) 20:39:00 437.445
SEEDS 23 Nov 20:42:03 20:46:10 66° 76° (ENE) 20:50:20 437.485
UWE-3 23 Nov 20:43:28 20:43:53 10° 67° (ENE) 20:44:17 435.000/436.395/437.385
CINEMA 3 23 Nov 20:43:41 20:47:09 22° 72° (ENE) 20:50:31 145.822/145.860
SHINDAISAT 23 Nov 20:44:09 20:44:40 11° 247° (WSW) 20:45:10 437.305
STRAND 1 23 Nov 20:47:15 20:49:21 13° 295° (WNW) 20:51:27 437.568
AIST 2 23 Nov 20:53:25 20:57:25 45° 114° (ESE) 21:01:29 435.215
DX 1 23 Nov 20:54:13 20:58:02 30° 72° (ENE) 21:01:52 434.975-435.025
AIST 1 23 Nov 21:02:25 21:05:55 23° 282° (WNW) 21:09:28
AAUSAT CUBESAT 2 23 Nov 21:03:59 21:08:07 89° 253° (WSW) 21:12:18 437.432
CANX-2 23 Nov 21:06:41 21:10:42 45° 261° (W) 21:14:45 2200.000
VELOX 1 23 Nov 21:14:32 21:17:00 15° 68° (ENE) 21:19:28 145.980
COMPASS 1 23 Nov 21:17:39 21:21:41 51° 260° (W) 21:25:45 437.405
HO-68 23 Nov 21:20:40 21:27:29 46° 259° (W) 21:34:21 435.675
ZACube-1 23 Nov 21:20:50 21:24:21 26° 72° (ENE) 21:27:49 437.345
DELFI C3 23 Nov 21:21:55 21:25:53 57° 76° (ENE) 21:29:54 145.870
HUMSAT D 23 Nov 21:23:50 21:26:20 16° 69° (ENE) 21:28:50 437.325/437.525
DOVE 4 23 Nov 21:25:15 21:30:02 66° 259° (W) 21:34:32 437.250
GONETS M04 23 Nov 21:28:47 21:36:12 32° 275° (W) 21:43:35
50 SAT 23 Nov 21:29:31 21:31:47 15° 69° (ENE) 21:34:02 437.505
AISAT 23 Nov 21:37:42 21:41:31 28° 71° (ENE) 21:45:20 437.250
CUTE 1.7 & AOD 2 23 Nov 21:42:56 21:45:52 18° 265° (W) 21:48:49 437.475
PCSat 23 Nov 21:47:32 21:50:25 14° 309° (NW) 21:53:18 145.827
PHONESAT 2.4 23 Nov 21:49:17 21:52:56 60° 211° (SSW) 21:56:35 2401.200-2431.200
TIGRISAT 23 Nov 21:55:18 21:56:23 11° 93° (E) 21:57:28 435.000
FUNcube-1 23 Nov 21:55:46 22:00:01 71° 77° (ENE) 22:04:11 145.935
UKube-1 23 Nov 21:56:49 22:01:00 46° 260° (W) 22:05:12 .
BEESAT 3 23 Nov 21:56:54 21:59:15 15° 308° (NW) 22:01:37 437.485
GOMX 1 23 Nov 21:56:57 22:00:49 23° 263° (W) 22:04:31 467.674
CUBEBUG 1 23 Nov 22:00:59 22:03:47 17° 69° (ENE) 22:06:36 437.445
UNISAT 6 23 Nov 22:06:01 22:08:45 16° 95° (E) 22:11:30 437.425
CUBEBUG 2 23 Nov 22:10:22 22:14:36 51° 260° (W) 22:18:45 437.445
Oscar 11 23 Nov 22:10:36 22:14:18 28° 263° (W) 22:18:02 145.826/435.025
VERMONT LUNAR 23 Nov 22:10:58 22:14:02 26° 217° (SW) 22:17:05 437.305
BEESAT 2 23 Nov 22:11:09 22:12:46 12° 310° (NW) 22:14:23 435.950
NANOSAT C BR1 23 Nov 22:14:36 22:16:06 12° 93° (E) 22:17:35 145.865
BRITE-PL 23 Nov 22:15:35 22:17:08 11° 266° (W) 22:18:40 437.365/2234.400
UWE-3 23 Nov 22:15:46 22:19:58 52° 260° (W) 22:24:05 435.000/436.395/437.385
CINEMA 3 23 Nov 22:20:32 22:24:13 25° 263° (W) 22:27:48 145.822/145.860
QB50P1 23 Nov 22:23:12 22:25:44 16° 95° (E) 22:28:15 145.935-145.965
DX 1 23 Nov 22:31:15 22:34:16 18° 264° (W) 22:37:17 434.975-435.025
ANTELSAT 23 Nov 22:33:19 22:37:22 34° 98° (E) 22:41:30 437.575/2403.000
AIST 2 23 Nov 22:33:56 22:36:16 14° 309° (NW) 22:38:37 435.215
ESTCUBE 1 23 Nov 22:38:41 22:43:02 48° 74° (ENE) 22:47:26 437.505/2401.250
BUGSAT 1 23 Nov 22:46:02 22:49:19 23° 97° (E) 22:52:33 437.445
POPSAT HIP 1 23 Nov 22:46:37 22:50:21 30° 98° (E) 22:54:04 437.405
VELOX 1 23 Nov 22:48:59 22:53:12 40° 261° (W) 22:57:26 145.980
RS-15 23 Nov 22:53:39 22:56:00 11° 21° (NNE) 22:58:22 29.354- 29.394
ZACube-1 23 Nov 22:57:35 23:00:39 19° 264° (W) 23:03:42 437.345
HUMSAT D 23 Nov 22:58:11 23:01:53 31° 262° (W) 23:05:33 437.325/437.525
50 SAT 23 Nov 23:03:11 23:06:48 31° 262° (W) 23:10:25 437.505
ISS 23 Nov 23:05:16 23:07:53 22° 128° (SE) 23:10:31 145.825
AISAT 23 Nov 23:14:44 23:18:05 21° 264° (W) 23:21:27 437.250
POLYITAN 1 23 Nov 23:18:15 23:22:29 81° 102° (ESE) 23:26:42 437.675
JUGNU 23 Nov 23:20:49 23:23:36 14° 163° (SSE) 23:26:23 437.505
QB50P2 23 Nov 23:21:16 23:25:30 89° 102° (ESE) 23:29:44 145.880/145.840
DUCHIFAT 1 23 Nov 23:28:57 23:33:09 75° 283° (WNW) 23:37:20 145.980
TIGRISAT 23 Nov 23:29:01 23:33:18 51° 285° (WNW) 23:37:41 435.000
TISAT 1 23 Nov 23:31:01 23:35:04 43° 74° (ENE) 23:39:07 437.305
SPROUT 23 Nov 23:33:23 23:37:24 39° 74° (ENE) 23:41:26 437.525
CUBEBUG 1 23 Nov 23:35:47 23:39:51 35° 262° (W) 23:43:56 437.445
UNISAT 6 23 Nov 23:41:32 23:45:35 36° 287° (WNW) 23:49:43 437.425
AUBIESAT-1 23 Nov 23:46:08 23:48:23 15° 62° (ENE) 23:50:45 437.475
NANOSAT C BR1 23 Nov 23:48:09 23:52:08 41° 286° (WNW) 23:56:05 145.865
M-CUBED/EXP-1 PRIME 23 Nov 23:49:11 23:51:51 18° 63° (ENE) 23:54:41 437.505
BEESAT 23 Nov 23:57:34 23:59:17 12° 65° (ENE) 00:01:00 436.000
QB50P1 23 Nov 23:57:55 00:01:39 32° 287° (WNW) 00:05:23 145.935-145.965
ANTELSAT 24 Nov 00:10:59 00:13:54 17° 291° (WNW) 00:16:51 437.575/2403.000
ESTCUBE 1 24 Nov 00:18:28 00:20:07 12° 267° (W) 00:21:46 437.505/2401.250
BUGSAT 1 24 Nov 00:21:41 00:24:39 20° 290° (WNW) 00:27:35 437.445
POPSAT HIP 1 24 Nov 00:23:18 00:25:59 17° 291° (WNW) 00:28:39 437.405
CUSAT 1 24 Nov 00:28:19 00:33:06 70° 83° (E) 00:39:33 437.405
ISS 24 Nov 00:41:42 00:44:26 24° 322° (NW) 00:47:12 145.825
DANDE 24 Nov 00:43:48 00:48:27 83° 83° (E) 00:54:48 436.750
Oscar 19 24 Nov 00:46:53 00:49:32 14° 93° (E) 00:52:09 437.125/150
ITUPSAT 1 24 Nov 00:48:34 00:53:06 44° 73° (ENE) 00:57:40 437.325
SWISSCUBE 24 Nov 01:00:12 01:04:57 67° 75° (ENE) 01:09:44 437.505
RS-15 24 Nov 01:02:28 01:12:51 40° 52° (NE) 01:23:34 29.354- 29.394
KKS-1 24 Nov 01:02:51 01:03:32 10° 66° (ENE) 01:04:13 437.445
JUGNU 24 Nov 01:07:28 01:12:00 23° 173° (S) 01:16:34 437.505
TISAT 1 24 Nov 01:09:30 01:11:04 12° 266° (W) 01:12:37 437.305
SPROUT 24 Nov 01:11:29 01:13:36 13° 266° (W) 01:15:43 437.525
SRMSAT 24 Nov 01:14:36 01:18:10 16° 166° (SSE) 01:21:45 437.500
AUBIESAT-1 24 Nov 01:19:30 01:23:00 34° 258° (WSW) 01:26:49 437.475
M-CUBED/EXP-1 PRIME 24 Nov 01:23:21 01:26:39 28° 260° (W) 01:30:13 437.505
BEESAT 24 Nov 01:31:52 01:36:34 59° 259° (W) 01:41:19 436.000
ITAMSAT 1 24 Nov 01:34:31 01:37:30 15° 94° (E) 01:40:28 435.822/435.867
Gurwin Techsat 1B 24 Nov 01:53:47 01:56:15 13° 93° (E) 01:58:43 435.225
STARS 24 Nov 01:59:53 02:03:49 33° 72° (ENE) 02:07:46 437.465
CUSAT 1 24 Nov 02:14:58 02:16:13 11° 267° (W) 02:17:32 437.405
MaSat-1 24 Nov 02:22:13 02:23:55 17° 252° (WSW) 02:25:40 437.345
Oscar 19 24 Nov 02:24:04 02:29:05 53° 286° (WNW) 02:34:05 437.125/150
ITUPSAT 1 24 Nov 02:28:27 02:31:08 15° 266° (W) 02:33:50 437.325
KKS-1 24 Nov 02:35:15 02:39:38 58° 259° (W) 02:44:02 437.445
YUBILEINY 24 Nov 02:36:00 02:44:30 56° 90° (E) 02:53:00 435.215
JUGNU 24 Nov 02:55:43 03:00:29 25° 183° (S) 03:05:16 437.505
SO-50 24 Nov 03:01:44 03:04:01 14° 107° (ESE) 03:06:20 436.795
SRMSAT 24 Nov 03:02:02 03:06:46 24° 175° (S) 03:11:30 437.500
ITAMSAT 1 24 Nov 03:12:13 03:17:10 48° 287° (WNW) 03:22:06 435.822/435.867
RS-15 24 Nov 03:14:33 03:25:26 54° 250° (WSW) 03:36:49 29.354- 29.394
Gurwin Techsat 1B 24 Nov 03:31:18 03:36:30 57° 286° (WNW) 03:41:40 435.225
STARS 24 Nov 03:37:31 03:40:20 17° 265° (W) 03:43:09 437.465
HORYU 2 24 Nov 03:47:14 03:51:45 82° 283° (WNW) 03:56:14 437.375
AO-7 24 Nov 04:25:27 04:33:42 60° 104° (ESE) 04:41:54 29.400- 29.500
YUBILEINY 24 Nov 04:34:34 04:41:36 26° 287° (WNW) 04:48:40 435.215
JAS-2 24 Nov 04:34:50 04:39:46 21° 91° (E) 04:44:17 435.910
SO-50 24 Nov 04:39:48 04:44:05 44° 302° (WNW) 04:48:30 436.795
JUGNU 24 Nov 04:45:02 04:48:57 18° 193° (SSW) 04:52:52 437.505
SRMSAT 24 Nov 04:50:43 04:55:25 24° 186° (S) 05:00:06 437.500
PCSat 24 Nov 04:54:57 04:58:57 21° 55° (NE) 05:02:56 145.827
MOZHAYETS 4 24 Nov 05:00:45 05:05:16 64° 259° (W) 05:09:51
PRISM 24 Nov 05:23:09 05:26:59 37° 73° (ENE) 05:30:53 437.425
Cubesat XI-IV 24 Nov 05:36:13 05:39:20 16° 94° (E) 05:42:26 437.490
O/OREOS (USA 219) 24 Nov 05:59:56 06:04:12 43° 105° (ESE) 06:08:27 437.305
CUTE-I 24 Nov 06:16:38 06:21:38 41° 99° (E) 06:26:37 437.470
STRAND 1 24 Nov 06:16:43 06:21:43 54° 74° (ENE) 06:26:43 437.568
JAS-2 24 Nov 06:18:26 06:25:12 52° 289° (WNW) 06:31:11 435.910
AO-7 24 Nov 06:19:18 06:25:51 27° 299° (WNW) 06:32:26 29.400- 29.500
BEESAT 3 24 Nov 06:19:18 06:23:30 85° 63° (ENE) 06:27:37 437.485
BEESAT 2 24 Nov 06:33:02 06:37:13 74° 244° (WSW) 06:41:20 435.950
CUBESAT XI-V 24 Nov 06:35:58 06:40:41 89° 77° (ENE) 06:45:26 437.345
PCSat 24 Nov 06:37:23 06:42:32 45° 250° (WSW) 06:47:39 145.827
SRMSAT 24 Nov 06:40:36 06:44:00 16° 195° (SSW) 06:47:23 437.500
AIST 2 24 Nov 06:58:16 07:02:35 83° 243° (WSW) 07:06:47 435.215
PRISM 24 Nov 07:00:35 07:02:38 13° 266° (W) 07:04:42 437.425
ISS 24 Nov 07:13:27 07:16:30 34° 40° (NE) 07:19:32 145.825
AIST 1 24 Nov 07:13:57 07:18:13 52° 82° (E) 07:22:26
Cubesat XI-IV 24 Nov 07:14:30 07:19:37 49° 287° (WNW) 07:24:42 437.490
O/OREOS (USA 219) 24 Nov 07:41:27 07:43:46 14° 299° (WNW) 07:46:06 437.305
CUTE-I 24 Nov 07:57:37 08:01:21 20° 293° (WNW) 08:05:04 437.470
STRAND 1 24 Nov 07:58:38 08:01:08 14° 267° (W) 08:03:38 437.568
GONETS M04 24 Nov 08:25:40 08:34:15 62° 91° (E) 08:42:54
SEEDS 24 Nov 08:32:59 08:35:42 16° 95° (E) 08:38:24 437.485
BRITE-PL 24 Nov 08:43:56 08:47:18 24° 97° (E) 08:50:42 437.365/2234.400
ISS 24 Nov 08:50:52 08:52:54 15° 233° (SW) 08:54:57 145.825
AAUSAT CUBESAT 2 24 Nov 08:53:22 08:56:36 21° 96° (E) 08:59:49 437.432
HO-68 24 Nov 08:53:31 09:00:20 46° 101° (E) 09:07:06 435.675
CANX-2 24 Nov 08:57:04 09:01:09 43° 99° (E) 09:05:14 2200.000
COMPASS 1 24 Nov 09:06:42 09:10:37 36° 98° (E) 09:14:32 437.405
DELFI C3 24 Nov 09:09:45 09:11:27 12° 93° (E) 09:13:10 145.870
ANTELSAT 24 Nov 09:29:26 09:32:09 17° 69° (ENE) 09:34:52 437.575/2403.000
DOVE 4 24 Nov 09:29:28 09:33:29 44° 100° (E) 09:37:37 437.250
CUTE 1.7 & AOD 2 24 Nov 09:31:50 09:36:08 75° 283° (WNW) 09:40:24 437.475
POPSAT HIP 1 24 Nov 09:36:48 09:38:55 14° 68° (ENE) 09:41:02 437.405
UKube-1 24 Nov 09:49:40 09:53:46 41° 100° (E) 09:57:51 .
FUNcube-1 24 Nov 09:50:11 09:53:16 19° 96° (E) 09:56:23 145.935
Oscar 11 24 Nov 10:02:13 10:06:34 73° 102° (ESE) 10:10:54 145.826/435.025
GOMX 1 24 Nov 10:02:46 10:06:45 47° 285° (WNW) 10:10:51 467.674
CUBEBUG 2 24 Nov 10:06:23 10:10:27 44° 100° (E) 10:14:37 437.445
POLYITAN 1 24 Nov 10:07:17 10:11:05 32° 73° (ENE) 10:14:53 437.675
SEEDS 24 Nov 10:07:46 10:11:32 31° 287° (WNW) 10:15:18 437.485
QB50P2 24 Nov 10:10:00 10:13:52 35° 73° (ENE) 10:17:45 145.880/145.840
UWE-3 24 Nov 10:10:38 10:14:41 42° 99° (E) 10:18:48 435.000/436.395/437.385
DUCHIFAT 1 24 Nov 10:17:08 10:21:09 42° 74° (ENE) 10:25:10 145.980
CINEMA 3 24 Nov 10:19:22 10:23:35 74° 283° (WNW) 10:27:56 145.822/145.860
BRITE-PL 24 Nov 10:22:43 10:25:41 19° 289° (WNW) 10:28:41 437.365/2234.400
DX 1 24 Nov 10:23:08 10:27:28 71° 284° (WNW) 10:31:46 434.975-435.025
TIGRISAT 24 Nov 10:23:12 10:27:29 76° 77° (ENE) 10:31:44 435.000
GONETS M04 24 Nov 10:24:54 10:31:32 24° 288° (WNW) 10:38:15
AAUSAT CUBESAT 2 24 Nov 10:28:46 10:32:10 24° 288° (WNW) 10:35:34 437.432
CANX-2 24 Nov 10:34:48 10:36:41 13° 292° (WNW) 10:38:34 2200.000
UNISAT 6 24 Nov 10:35:48 10:40:05 73° 259° (WSW) 10:44:21 437.425
NANOSAT C BR1 24 Nov 10:35:58 10:40:13 75° 77° (ENE) 10:44:28 145.865
ESTCUBE 1 24 Nov 10:38:00 10:40:39 15° 94° (E) 10:43:18 437.505/2401.250
HO-68 24 Nov 10:41:47 10:47:41 29° 295° (WNW) 10:53:33 435.675
DELFI C3 24 Nov 10:43:02 10:46:52 38° 286° (WNW) 10:50:42 145.870
COMPASS 1 24 Nov 10:43:40 10:46:01 15° 291° (WNW) 10:48:22 437.405
VELOX 1 24 Nov 10:44:40 10:49:00 55° 101° (E) 10:53:18 145.980
QB50P1 24 Nov 10:45:34 10:49:51 82° 257° (WSW) 10:54:07 145.935-145.965
HUMSAT D 24 Nov 10:47:12 10:51:19 58° 101° (E) 10:55:28 437.325/437.525
50 SAT 24 Nov 10:48:40 10:52:36 48° 100° (E) 10:56:33 437.505
ZACube-1 24 Nov 10:49:50 10:54:04 72° 283° (WNW) 10:58:22 437.345
ANTELSAT 24 Nov 11:04:53 11:08:42 31° 262° (W) 11:12:30 437.575/2403.000
DOVE 4 24 Nov 11:09:38 11:10:53 11° 292° (WNW) 11:12:09 437.250
